Temp
15 14 14 14 15 15 16 16 16 16 16 16 16 15 16 16 16 16 16 16 15 15 16 16 16 16 16 16 16 16 16 16
14 14 15 15 15 15 16 16 16 16 16 16 16 15 16 16 16 16 16 16 15 15 15 15 15 15 15 15 15 15 15 15
15 15 15 14 15 15 15 15 15 16 16 15 15 15 15 15 15 15 15 15 15 15 15 15 15 15 15 15 15 15 15 15
15 15 15 15 15 15 15 15 15 15 15 15 15 15 15 15 15 15 15 15 15 15 15 15 15 15 15 15 15 15 14 14
15 15 15 15 15 15 15 15 15 15 15 15 15 15 15 15 15 15 15 15 15 15 15 15 15 15 15 15 15 15 14 14
15 15 15 15 15 15 15 15 15 15 14 15 15 15 15 15 15 14 14 14 15 14 14 14 14 14 14 14 15 14 14 13
15 15 15 15 15 14 14 14 15 14 14 14 15 15 15 14 14 14 14 14 15 14 14 14 14 14 14 14 14 13 13 13
15 16 15 15 14 14 14 14 14 14 14 14 14 14 14 14 14 14 14 14 14 14 14 13 13 13 13 13 12 12 12 12
15 16 15 15 14 14 14 14 14 14 14 14 14 14 14 14 14 14 13 13 14 14 14 13 13 12 12 12 12 11 11 11
15 15 15 15 14 14 14 14 14 14 14 14 14 14 14 14 14 13 13 13 13 13 13 13 12 12 11 11 11 10 10 10
15 15 15 15 14 14 14 14 13 13 13 13 13 13 13 14 13 12 12 12 12 12 12 12 12 12 10 10 10 10 9 9
15 15 15 14 14 14 14 13 13 13 13 13 13 13 13 13 13 12 12 12 12 11 11 11 10 11 11 10 9 9 8 8
15 15 14 14 14 14 13 13 13 13 13 13 13 13 13 12 12 11 11 11 10 10 10 10 9 9 10 10 9 8 7 7
15 15 15 14 15 14 14 14 13 13 12 12 12 12 12 12 11 11 10 10 10 9 9 8 7 7 7 6 4 7 7 7
15 15 15 15 14 14 14 13 12 12 12 12 12 12 12 11 11 10 10 9 9 8 7 7 7 6 6 6 4 4 4 6
15 15 15 15 14 14 14 14 12 13 12 11 11 11 11 10 10 10 9 8 8 7 6 6 6 5 6 5 5 5 3 2
15 15 15 15 14 14 14 14 14 13 12 11 11 10 10 10 9 9 8 7 7 6 6 5 5 4 3 3 3 3 3 1
15 15 15 15 14 14 14 14 14 13 12 11 10 10 9 9 8 7 7 7 6 6 5 4 4 3 2 1 0 0 0 -0
15 15 15 15 14 14 14 14 14 13 12 11 10 9 8 7 7 7 6 6 5 4 4 3 2 2 1 1 0 -0 -1 -1
14 15 14 15 15 14 14 14 14 12 12 10 9 8 7 6 6 6 5 4 4 3 2 1 0 0 -0 -0 -1 -1 -2 -2
Height
865 867 867 868 869 871 871 872 872 872 872 872 872 872 871 871 870 869 868 867 866 865 864 864 863 862 861 860 860 859 858 857
868 869 870 871 872 872 872 872 873 873 873 874 874 874 873 873 872 871 871 870 870 869 868 867 866 865 864 864 863 862 861 859
870 872 873 874 874 875 875 876 876 875 875 876 876 875 876 875 875 875 874 874 873 872 871 870 869 868 867 867 865 864 864 862
871 872 874 875 876 876 877 878 879 879 879 879 878 878 878 878 878 877 877 876 875 874 873 872 871 870 869 868 867 867 866 865
871 872 872 874 876 877 878 879 880 881 881 881 880 880 880 880 880 880 879 879 878 877 875 874 873 872 871 870 869 868 867 867
869 871 873 874 876 877 878 879 881 882 882 883 882 882 882 882 882 882 882 881 880 879 878 877 875 874 872 871 870 869 868 868
868 870 873 875 877 879 880 881 882 883 884 885 885 884 884 885 885 884 884 884 883 881 880 879 877 876 875 873 872 871 870 869
868 869 872 876 878 880 882 883 884 885 886 887 887 887 887 887 887 887 886 886 885 884 883 881 880 879 878 876 875 874 873 871
866 869 871 875 878 880 882 884 885 886 887 889 889 890 890 890 890 889 890 889 888 887 886 884 882 882 880 879 879 877 876 874
866 868 871 875 877 880 883 885 886 888 889 890 891 891 891 891 891 892 892 891 889 888 886 886 885 883 883 882 881 880 879 877
864 868 871 874 878 880 883 885 887 889 890 891 892 892 893 893 893 894 894 893 890 889 888 887 886 885 885 884 883 881 881 880
865 868 871 874 877 880 883 885 887 889 891 892 893 893 894 894 894 895 895 894 893 892 890 889 887 886 886 884 883 883 882 881
864 867 870 873 875 878 882 884 887 890 891 892 893 894 895 895 895 896 895 894 894 893 892 891 888 887 885 884 883 882 881 881
862 866 868 872 875 878 881 884 887 890 892 893 894 894 895 895 895 896 896 895 895 894 893 893 892 890 889 887 885 883 880 880
859 863 867 871 875 878 881 884 887 890 891 893 894 895 895 895 895 896 896 896 895 895 894 893 893 892 891 891 889 888 883 879
857 862 866 869 873 876 879 881 885 888 890 892 894 895 895 896 896 896 896 896 896 896 896 893 893 893 891 890 890 888 885 879
854 859 864 868 871 875 878 882 884 887 889 892 893 894 895 896 896 896 897 897 896 896 896 895 892 892 891 890 889 887 886 884
850 856 861 866 870 874 877 880 883 886 888 890 893 894 895 895 895 896 896 897 898 897 896 894 893 892 892 891 890 889 887 885
846 852 858 863 869 872 876 879 882 884 886 889 892 894 896 896 896 898 898 898 896 896 896 896 895 893 893 891 891 889 886 884
841 848 854 861 866 871 874 878 880 883 886 889 892 894 894 896 896 897 898 899 898 897 896 896 896 894 893 891 889 887 884 882
Wind_Speed
10 12 13 14 14 14 13 13 13 13 14 15 17 20 21 21 22 20 19 22 25 23 23 21 22 21 21 21 21 21 21 22
13 14 15 16 15 13 12 12 12 11 11 14 16 18 19 21 22 22 19 19 22 22 21 20 20 21 21 21 21 23 24 24
15 15 14 12 11 11 13 13 13 14 19 19 18 17 17 19 20 21 22 22 21 21 22 19 16 16 17 18 18 19 20 21
14 15 12 11 12 13 14 15 16 19 19 18 17 16 16 16 17 17 18 18 19 19 18 19 19 17 15 13 15 15 15 17
15 15 14 13 14 14 15 16 17 18 17 16 15 16 15 15 17 17 17 17 19 19 20 20 19 17 15 14 12 11 12 13
17 16 15 15 14 15 16 16 16 17 16 15 12 15 18 19 20 20 20 21 21 21 22 23 24 22 20 17 14 11 10 11
16 18 17 14 14 15 15 16 15 15 14 14 12 15 18 19 20 21 21 20 22 22 22 22 22 23 23 22 19 16 13 10
16 17 18 16 14 14 15 15 14 13 13 13 13 15 17 18 19 21 21 20 21 22 22 22 22 19 21 21 21 19 18 16
17 20 22 19 16 16 15 14 14 13 13 12 12 12 13 15 17 19 19 18 19 20 22 22 22 20 20 19 19 20 20 20
20 22 23 20 17 16 15 14 13 12 11 11 11 11 11 12 14 16 15 16 18 20 22 23 23 20 16 18 17 17 18 19
24 24 24 21 18 17 17 15 13 12 11 10 9 9 9 9 12 13 13 16 20 21 22 23 23 19 15 8 13 17 17 16
24 24 25 22 21 20 18 15 13 12 10 8 8 8 7 7 10 11 11 14 18 19 20 21 23 20 13 8 4 8 16 15
27 27 25 25 24 22 19 17 14 12 10 8 6 5 6 6 8 9 12 16 18 18 19 20 21 21 17 11 4 6 6 18
28 28 28 26 24 22 20 18 14 13 10 8 6 5 6 5 6 8 11 13 14 17 18 17 15 17 12 4 4 6 5 22
30 29 29 26 23 21 18 18 15 13 11 10 9 6 4 4 6 7 9 11 13 13 14 14 12 10 9 6 3 2 8 7
30 29 30 26 24 23 21 22 19 15 14 10 9 7 5 4 5 5 7 9 11 11 10 10 9 8 5 5 4 9 2 4
32 30 29 27 25 23 20 19 18 12 13 12 11 9 5 4 3 4 7 8 8 7 8 8 7 6 7 7 8 10 7 5
34 32 30 27 25 22 19 18 18 15 15 15 13 9 7 5 5 4 5 6 7 7 6 7 9 9 11 13 13 5 7 5
36 33 31 28 24 23 20 18 15 15 17 17 15 11 8 7 6 6 7 7 7 7 8 9 10 12 12 12 11 11 11 12
36 35 31 28 24 22 18 15 12 12 13 14 11 10 10 10 9 8 7 5 7 8 9 10 11 13 13 14 14 14 14 13
Wind_Direction
124 126 127 128 127 123 123 121 109 98 94 88 83 84 86 82 79 81 81 73 71 72 72 73 74 69 65 60 54 52 51 50
124 125 124 122 121 119 117 119 115 103 97 100 100 91 87 84 82 80 80 80 76 70 72 73 74 71 67 66 63 58 51 53
125 125 124 120 116 111 110 101 100 105 109 107 103 92 86 84 84 83 82 80 76 72 69 72 73 69 62 58 59 60 61 58
140 134 127 126 121 119 116 108 108 109 108 107 100 92 84 81 83 83 82 77 70 66 66 67 68 66 60 56 54 54 58 61
153 148 139 134 128 127 122 119 116 113 111 107 98 90 87 83 81 80 78 73 69 66 65 61 60 59 57 55 52 54 58 54
174 165 155 141 138 136 135 129 126 118 110 107 100 90 82 80 78 77 76 71 69 68 65 64 62 60 56 54 53 62 62 56
178 177 170 160 148 140 136 128 125 119 113 106 97 90 85 82 77 75 73 69 67 65 62 60 61 59 55 52 55 58 59 53
180 173 178 173 158 152 140 129 121 122 113 107 102 92 90 84 79 75 70 65 65 63 61 59 58 57 57 55 58 58 59 58
181 173 167 167 157 150 148 139 129 128 119 108 106 97 92 86 80 73 68 65 64 62 58 56 55 57 59 61 60 61 59 58
177 171 167 166 159 154 149 146 140 132 127 116 107 105 93 90 82 71 62 57 52 48 45 45 46 46 53 59 62 59 57 54
178 173 170 168 158 152 151 148 150 142 134 127 114 104 98 89 79 72 57 51 47 41 36 33 33 37 41 60 58 52 45 40
183 177 173 171 163 159 154 151 146 142 145 139 124 110 100 86 79 69 52 44 43 36 32 28 26 21 23 21 32 32 34 27
189 183 180 177 174 170 168 163 159 154 150 146 143 129 109 89 73 63 49 42 41 34 29 23 23 18 11 9 360 336 341 10
191 188 184 185 186 184 181 176 172 169 162 156 149 137 114 94 78 65 54 46 38 31 29 32 31 27 22 1 359 333 328 340
196 193 189 189 189 184 180 181 174 174 176 169 158 149 130 101 81 66 50 37 33 30 29 34 30 28 31 41 358 274 324 307
198 195 192 193 192 191 191 186 181 198 194 180 164 157 147 112 86 67 43 34 35 34 30 33 23 9 356 2 293 284 300 316
199 196 196 197 197 201 203 194 200 203 196 187 177 168 158 134 107 66 52 47 35 17 2 359 7 358 3 339 320 316 318 307
199 198 200 200 199 201 206 201 205 207 197 191 181 172 165 146 136 103 63 35 12 5 12 34 47 54 52 45 44 24 342 327
199 199 201 201 202 205 210 215 225 225 213 198 180 172 152 143 115 77 49 47 50 63 55 48 41 38 27 17 2 348 330 318
197 199 199 199 201 206 210 216 230 214 207 188 170 160 150 124 104 85 60 51 54 50 48 47 36 26 14 3 353 346 339 336